CAPE
415 749 1105 1276 829 1283 1443 1434 1413 1274 1306 1220 1174 1303 1083 1210 1321 1180 1478 1323 1365 842 1028 1087 887 803 825 939 654 1291 1252 1119 777 808 1222 1115 839 1137 1434 1495 1418 1091 1605
481 1009 1060 1462 1281 1323 1275 1347 1374 1346 1300 1248 1249 1039 1110 1297 1360 1335 1373 881 1248 756 734 924 965 1015 870 652 716 599 877 1199 816 1081 1222 1142 864 1211 1279 1191 1442 1563 1689
525 687 1118 1339 1552 1382 1400 1420 1101 1321 943 904 853 1186 1066 919 780 704 701 621 744 687 691 938 1071 1066 993 916 742 585 467 362 977 1427 965 972 786 1146 1331 1344 1475 1527 1630
209 598 1049 1155 1261 1301 1294 763 1336 1128 1327 1198 1280 976 1088 1101 1037 881 816 771 758 819 778 735 739 877 1059 1039 1185 1054 888 493 302 511 808 973 404 799 1209 1176 1280 1075 1293
288 645 1060 1073 1130 1228 1223 1300 1167 1364 1244 1195 1163 1119 991 826 640 497 412 317 195 274 770 1001 1129 1545 1281 1306 1279 1150 1276 1080 703 554 444 673 781 656 928 1061 564 1305 1299
370 471 1123 1131 933 1054 1203 1118 1157 1136 1345 771 676 480 342 322 229 159 333 744 1005 922 754 355 422 1018 1386 1291 1157 1210 1230 1445 1266 649 627 651 946 1050 824 886 1021 800 1111
393 567 847 850 524 864 933 484 587 809 668 363 230 163 88 113 378 759 1098 1298 1006 669 319 304 126 404 696 836 1018 1107 1389 1686 1594 904 993 1093 1039 1270 951 1081 1228 1443 1010
124 603 888 680 787 769 376 540 143 204 202 155 154 153 273 588 903 889 710 683 723 607 66 199 349 428 555 720 904 1071 1157 1359 1539 982 1009 979 1205 1152 1016 1053 1099 1421 1541
466 625 592 646 983 911 132 92 69 97 108 171 230 252 502 658 465 259 14 309 115 129 77 55 139 333 293 251 580 673 1001 1076 1045 906 875 1142 1094 1290 1303 1288 1335 1265 1413
300 55 22 209 897 293 37 515 520 48 179 225 289 575 802 788 482 526 587 245 88 253 257 399 507 537 573 485 529 611 831 1466 1268 759 736 1118 1530 1371 1162 1458 1497 1744 1643
0 0 20 278 599 101 13 266 344 317 395 475 679 1015 651 1008 1038 650 846 805 285 651 595 527 775 782 853 966 1084 1159 1493 1205 856 664 837 1565 1674 1304 1257 957 1330 1447 1623
0 0 30 282 435 95 25 3 51 209 490 660 917 14 764 120 26 865 1040 788 617 1090 1112 1208 1102 1135 1441 1567 1089 1580 1415 1107 1347 1389 858 781 690 941 963 806 842 1025 1389
0 0 23 205 135 0 0 0 75 156 689 1231 1014 1 169 21 396 415 632 907 1109 1217 1387 1457 1476 1412 1390 1189 1087 1306 1204 1119 1032 1088 730 828 1077 1424 1314 1422 1490 1661 1716
0 0 0 0 56 6 32 381 375 686 929 1364 1646 370 640 671 983 969 980 1433 1332 922 993 1264 1066 1260 1374 992 1137 1065 1249 1242 820 711 631 674 625 740 1020 1304 1413 1480 1542
0 0 0 28 139 110 260 807 486 212 238 758 1392 1683 186 1149 1575 1661 1060 1131 1363 1799 1268 1329 917 1125 1281 1275 1073 987 1281 1118 825 965 1008 914 551 811 359 682 750 833 922
0 0 0 0 0 1 438 604 492 472 511 484 1521 1467 1885 1849 1346 1830 1604 1536 1213 1430 1501 1528 1124 1476 1552 1439 1047 1019 959 940 889 783 684 629 551 206 160 321 176 85 158
0 0 0 0 7 49 660 555 415 719 867 709 1340 1291 1468 1526 972 1269 1361 1427 1314 1328 1535 1883 1549 1571 1704 1721 1293 1064 883 848 775 706 529 318 174 135 72 60 76 165 112
0 0 0 0 0 442 597 437 763 1163 703 893 1329 1661 1860 1749 1254 137 953 1596 1349 1713 1967 1748 1462 1623 1603 1788 1372 867 798 972 938 607 371 166 138 80 49 61 89 36 7
0 0 0 0 0 402 732 721 795 861 571 1146 1597 1346 238 883 848 597 963 1459 2040 2171 1904 1741 1567 1953 1808 1607 1613 893 649 890 749 672 356 138 30 0 0 19 19 32 20
0 0 0 0 0 476 752 704 720 767 214 622 1045 969 1190 1006 1597 1092 1670 1951 2143 2202 1774 1705 1693 1834 1842 1054 963 1208 917 695 524 255 205 25 18 1 0 0 7 7 0
0 0 0 0 113 643 372 429 428 665 203 465 1323 829 1350 509 1067 1757 1970 2469 1975 1812 2082 2021 1601 1414 1611 1805 435 267 1510 579 162 110 0 1 51 25 7 0 0 0 0
0 0 0 32 192 387 608 111 679 1188 924 1233 1290 1055 1062 795 921 1812 2074 2136 2361 2286 1975 1883 2054 1622 1463 1010 82 21 283 744 0 0 0 0 0 37 10 0 0 0 0
0 0 0 327 157 233 280 481 560 626 539 447 589 464 838 1434 803 1834 2192 2078 2210 2287 2383 2298 2091 2206 1365 288 81 120 1 0 0 112 13 4 0 11 0 0 5 9 0
0 0 0 337 164 101 459 746 284 190 96 26 127 1041 852 1285 682 1749 2037 1932 2441 2210 2079 2290 1932 1974 1000 38 7 3 40 106 34 0 38 21 40 0 7 9 11 18 0
42 46 41 218 382 212 243 606 176 287 206 269 472 1007 723 1196 812 991 1742 1915 2476 2262 2427 2167 2045 1640 1165 84 1 0 0 0 0 0 0 0 0 132 24 0 9 13 7
257 255 325 432 580 559 260 520 992 168 39 165 228 756 490 699 807 1437 1619 1601 2189 2439 2692 2269 2295 1853 876 0 0 0 0 0 0 0 0 0 0 0 60 9 11 11 3
CIN
-57 -56 -23 0 -4 0 0 0 0 0 0 0 0 0 -1 0 0 -1 0 -1 0 0 0 0 -3 -3 0 0 -4 0 -1 -2 -3 -5 0 -2 -10 -14 -13 -5 -3 -9 -4
-82 -30 -19 0 0 0 0 0 0 0 0 0 0 -1 -1 0 0 0 0 0 0 -19 -28 -19 -5 -1 -6 -19 -14 -15 -3 0 -3 0 0 -4 -24 -23 -19 -15 -5 -9 -3
-81 -59 -15 -1 0 0 0 0 0 0 0 -1 -5 -1 -2 -5 -9 -16 -15 -18 -17 -31 -28 -17 -20 -22 -24 -15 -24 -27 -35 -47 -8 0 -17 -25 -26 -14 -15 -14 -13 -13 -9
-113 -56 -12 -1 0 0 -1 -4 0 0 0 0 0 -5 -5 -5 -6 -15 -16 -24 -33 -31 -38 -44 -51 -42 -26 -22 -6 -4 -19 -52 -67 -39 -24 -18 -41 -32 -29 -28 -30 -39 -27
-100 -54 -11 -3 0 0 0 -1 -1 0 0 0 -1 -3 -22 -30 -42 -55 -60 -80 -99 -98 -59 -46 -36 -6 -15 -14 -13 -24 -21 -30 -48 -50 -59 -57 -37 -32 -33 -38 -64 -24 -16
-82 -82 -23 -10 -11 -1 0 -2 -3 0 0 -37 -39 -61 -80 -79 -97 -91 -70 -33 -25 -45 -76 -117 -102 -54 -30 -32 -32 -32 -33 -22 -33 -47 -54 -58 -29 -30 -32 -28 -32 -39 -31
-87 -77 -53 -47 -68 -25 -18 -65 -53 -33 -52 -82 -97 -100 -116 -109 -75 -51 -28 -12 -10 -58 -127 -135 -167 -122 -100 -84 -70 -66 -53 -33 -38 -60 -50 -21 -9 -34 -34 -26 -24 -21 -35
-131 -73 -44 -59 -40 -41 -85 -72 -115 -102 -104 -108 -112 -102 -93 -75 -58 -53 -56 -48 -42 -74 -176 -165 -149 -136 -125 -109 -97 -87 -72 -63 -42 -68 -59 -31 -26 -18 -18 -23 -28 -21 -19
-102 -76 -70 -64 -26 -27 -132 -133 -127 -123 -122 -140 -115 -108 -86 -72 -72 -75 -51 -75 -120 -137 -167 -191 -164 -136 -129 -123 -116 -109 -92 -80 -56 -61 -77 -54 -45 -20 -27 -26 -38 -31 -27
-102 -115 -138 -107 -40 -101 -154 -71 -79 -137 -105 -94 -75 -71 -59 -51 -61 -59 -69 -89 -112 -113 -124 -107 -108 -103 -106 -116 -113 -117 -90 -74 -82 -71 -89 -65 -57 -28 -28 -26 -42 -38 -32
0 0 -130 -83 -54 -156 -151 -94 -82 -90 -94 -71 -51 -33 -31 -46 -66 -74 -53 -57 -75 -69 -79 -74 -70 -87 -92 -90 -79 -87 -68 -73 -56 -94 -87 -34 -29 -26 -29 -62 -51 -54 -35
0 0 -99 -71 -57 -94 -107 -18 -141 -121 -95 -73 -65 -120 -80 -96 -43 -58 -51 -53 -73 -65 -70 -70 -72 -58 -81 -67 -70 -44 -56 -47 -85 -78 -52 -49 -59 -43 -73 -74 -69 -67 -33
0 0 -88 -59 -73 0 0 0 -188 -101 -89 -47 -58 -31 -80 -162 -56 -81 -66 -64 -56 -65 -54 -49 -51 -53 -53 -35 -27 -40 -63 -96 -45 -44 -76 -67 -47 -54 -51 -28 -21 -7 -1
0 0 0 0 -77 -17 -56 -61 -48 -65 -51 -25 -27 -77 -108 -78 -62 -50 -84 -65 -60 -48 -40 -33 -35 -34 -29 -39 -38 -56 -69 -61 -58 -71 -50 -60 -37 -28 -32 -16 -2 -1 -1
0 0 0 -89 -126 -79 -86 -13 -48 -57 -51 -54 -32 -36 -32 -45 -43 -24 -22 -35 -32 -33 -32 -21 -22 -28 -31 -25 -36 -40 -61 -59 -91 -73 -73 -60 -71 -59 -80 -28 -22 -22 -19
0 0 0 0 0 -5 -30 -25 -38 -52 -49 -56 -18 -31 -35 -21 -26 -18 -21 -22 -33 -39 -30 -24 -24 -26 -21 -44 -36 -47 -65 -76 -85 -82 -96 -95 -102 -185 -175 -84 -93 -91 -59
0 0 0 0 -83 -100 -55 -29 -36 -32 -41 -33 -24 -16 -18 -18 -15 -34 -37 -29 -39 -33 -22 -23 -33 -26 -22 -31 -40 -36 -46 -78 -122 -125 -145 -171 -188 -197 -244 -227 -140 -55 -56
0 0 0 0 0 -76 -50 -33 -45 -32 -26 -35 -13 -22 -23 -29 -83 -109 -73 -43 -41 -25 -30 -23 -35 -22 -25 -29 -30 -70 -59 -47 -72 -131 -192 -261 -213 -211 -180 -176 -193 -238 -46
0 0 0 0 0 -79 -59 -48 -57 -37 -28 -23 -20 -24 -85 -53 -50 -41 -56 -39 -39 -25 -20 -34 -24 -20 -18 -21 -40 -65 -76 -49 -90 -122 -191 -265 -288 0 0 -106 -50 -218 -32
0 0 0 0 0 -87 -60 -56 -67 -55 -56 -51 -36 -34 -33 -32 -33 -40 -20 -23 -25 -22 -35 -26 -34 -26 -17 -47 -59 -38 -41 -78 -119 -236 -226 -331 -244 -52 0 0 -112 -35 -3
0 0 0 0 -247 -85 -117 -94 -84 -51 -83 -68 -28 -29 -23 -37 -19 -19 -21 -19 -20 -27 -15 -17 -30 -33 -15 -20 -157 -219 -19 -73 -206 -234 0 -88 -173 -206 -261 -2 0 0 0
0 0 -1 -315 -219 -147 -102 -215 -80 -42 -45 -28 -19 -23 -22 -43 -39 -13 -16 -12 -10 -17 -22 -26 -33 -33 -39 -96 -300 -356 -151 -57 0 0 0 0 -12 -219 -204 0 0 0 0
0 0 0 -131 -205 -189 -188 -128 -118 -114 -92 -83 -62 -75 -41 -20 -62 -8 -11 -16 -21 -22 -20 -21 -30 -23 -71 -290 -372 -295 -100 0 0 -119 -251 -121 0 -207 0 0 -55 -78 -44
0 0 0 -128 -177 -235 -119 -104 -185 -212 -224 -165 -184 -38 -59 -48 -86 -19 -14 -23 -19 -25 -27 -23 -34 -29 -131 -377 -334 -89 -200 -301 -317 0 -25 -51 -125 0 -70 -74 -59 -123 0
-288 -275 -254 -164 -121 -154 -166 -109 -218 -169 -192 -158 -146 -67 -101 -57 -91 -90 -33 -32 -12 -21 -28 -37 -33 -46 -86 -404 -33 0 0 0 0 0 0 0 0 -87 -73 0 -107 -142 -112
-128 -139 -121 -116 -106 -109 -153 -122 -80 -211 -192 -224 -206 -114 -125 -99 -100 -57 -34 -46 -21 -18 -17 -32 -22 -32 -168 0 0 0 0 0 0 0 0 0 0 0 -88 -74 -110 -83 -109
Wind_Speed
28 29 27 21 16 13 9 6 9 6 2 3 4 4 3 5 4 5 13 21 21 25 22 24 25 25 24 23 22 21 20 20 21 20 21 22 23 23 23 22 21 23 22
30 29 28 26 21 6 4 18 17 13 8 10 4 3 3 5 7 9 6 9 12 17 17 20 23 22 21 21 21 22 20 19 19 20 19 20 21 21 21 21 21 20 21
29 29 28 27 28 27 27 3 9 13 14 11 8 8 8 8 7 11 13 14 18 20 20 18 16 17 17 17 18 20 20 19 19 19 20 20 19 20 19 19 17 18 18
30 29 28 28 28 27 26 26 19 12 14 8 9 10 10 10 14 17 17 18 19 19 18 16 14 13 14 15 16 17 17 17 17 18 19 19 19 19 18 18 16 16 16
30 29 28 28 28 28 27 28 27 4 3 4 4 6 10 14 15 15 16 16 16 16 16 15 14 14 14 15 15 16 16 16 16 17 17 18 20 19 18 17 16 16 15
29 28 28 28 28 27 27 27 27 27 25 20 15 16 16 14 13 12 12 13 14 15 16 14 13 13 13 12 13 14 14 15 15 16 18 18 20 19 17 17 16 15 13
29 28 28 28 28 28 27 27 26 24 22 21 20 18 16 14 13 12 11 12 15 16 15 13 13 15 14 14 15 14 14 14 14 16 17 16 19 18 16 16 15 14 13
28 29 29 29 29 28 27 27 26 25 24 22 20 17 14 14 14 13 14 15 17 17 18 17 16 16 14 13 13 12 13 14 15 16 15 15 15 16 15 15 14 13 13
29 30 29 28 28 27 27 27 26 25 24 22 21 20 18 15 15 14 15 16 18 18 18 17 16 15 14 13 12 12 13 13 14 15 14 14 15 15 14 13 12 11 10
29 30 29 28 27 27 26 26 25 24 24 21 19 16 16 16 17 17 17 17 17 17 16 16 15 14 12 10 9 9 11 12 13 14 13 12 13 14 12 10 8 8 8
29 29 29 29 29 28 27 26 25 24 23 19 16 13 13 13 17 16 16 14 14 15 13 13 13 12 11 8 7 7 8 9 11 12 12 9 14 13 10 7 7 7 6
30 30 29 30 30 30 28 28 26 24 21 19 17 9 16 16 16 15 12 13 12 13 11 10 10 10 9 9 8 14 18 10 17 17 18 17 15 11 11 9 8 7 6
31 30 30 31 31 29 28 27 25 23 21 20 23 18 21 15 12 10 18 14 11 12 11 10 10 12 13 8 8 19 18 17 19 18 21 19 17 16 16 14 12 11 9
30 30 31 30 29 26 25 25 23 22 20 20 17 15 10 13 12 12 14 13 12 13 13 13 15 13 14 11 21 24 24 23 22 22 21 21 20 21 23 21 19 17 16
29 31 30 28 25 25 21 19 26 23 19 18 17 23 14 15 15 13 11 11 10 9 12 11 13 18 9 17 21 23 23 23 21 20 21 22 23 23 25 24 22 22 22
28 28 29 28 25 23 19 21 23 19 20 15 20 21 16 16 16 15 12 8 11 14 13 10 10 14 14 17 18 18 20 21 22 21 21 23 23 24 25 24 24 24 25
27 28 28 29 28 26 23 22 20 16 18 20 20 20 18 20 18 6 8 9 11 10 10 10 15 19 21 16 17 17 17 20 21 23 22 22 23 23 23 23 23 24 24
25 27 27 28 29 27 26 23 19 15 17 17 21 19 18 15 18 10 11 6 9 13 10 15 18 15 9 19 17 19 14 16 19 21 20 21 22 21 22 21 23 23 24
24 26 27 28 29 27 26 23 19 17 19 23 22 21 17 23 20 19 11 11 11 16 17 19 18 14 9 12 16 15 15 14 18 19 18 19 19 21 20 22 21 22 23
24 24 25 27 26 27 26 24 21 19 18 18 21 20 19 21 19 18 16 14 21 19 20 19 15 9 15 20 19 15 15 18 16 17 17 17 17 18 18 20 20 21 22
22 21 24 24 26 27 26 25 22 20 20 16 20 19 20 18 19 20 18 21 12 21 19 20 18 22 24 18 22 19 16 20 17 17 17 16 15 15 15 17 18 19 21
19 22 22 23 24 25 25 25 22 14 17 18 19 18 19 19 17 19 20 18 13 22 26 28 29 25 23 26 25 25 21 19 19 16 16 16 14 13 13 13 14 16 19
18 21 21 21 22 22 26 26 21 14 16 14 15 15 16 17 16 18 20 20 20 26 28 29 29 28 25 26 29 23 21 19 20 17 16 15 14 11 11 12 13 13 18
19 19 20 19 20 22 25 24 22 19 17 15 14 14 16 15 16 18 20 21 24 26 27 27 27 27 28 28 22 26 23 19 21 21 21 21 16 11 10 11 14 16 19
18 19 19 19 20 21 23 23 21 18 18 19 15 17 15 16 16 16 19 20 22 24 26 27 26 28 29 27 26 23 23 23 26 25 23 24 22 12 10 14 14 15 19
17 17 19 20 20 21 21 20 17 17 19 18 14 15 14 14 14 16 18 20 21 22 23 26 26 27 27 28 26 28 27 25 25 26 25 26 26 22 13 19 16 16 18
Wind_Direction
129 126 133 157 173 176 184 195 179 196 253 323 331 330 249 226 274 306 41 51 136 113 129 110 96 83 85 89 94 90 100 93 99 88 104 110 119 124 130 137 143 123 111
114 119 123 136 152 8 351 157 156 170 183 178 214 268 263 223 217 198 242 201 189 158 148 124 91 97 109 109 105 89 96 102 101 105 100 105 115 117 121 130 114 101 106
108 113 116 123 112 115 102 248 187 172 169 180 192 196 200 208 222 191 177 175 151 132 122 125 137 123 123 125 123 105 108 112 120 117 124 123 119 120 110 102 86 97 101
109 112 115 116 124 120 129 128 154 180 171 190 184 186 189 192 170 154 152 144 132 128 127 132 145 149 145 132 128 124 126 128 140 144 150 151 131 124 109 111 99 97 106
109 105 111 110 112 113 100 110 109 356 251 232 279 222 192 171 161 158 150 147 153 154 147 148 145 142 137 125 131 126 127 131 144 160 159 175 151 141 127 121 111 110 105
98 101 105 110 115 113 108 112 110 103 128 150 171 161 158 167 167 173 182 181 176 158 148 158 167 155 143 148 147 142 137 136 152 166 171 161 157 142 137 137 124 111 105
98 107 112 115 118 119 118 115 120 136 148 148 146 147 157 163 168 171 174 166 162 158 167 177 166 146 138 129 126 129 134 142 151 160 167 180 162 143 141 142 139 127 125
100 113 121 119 120 120 118 115 120 129 137 140 144 150 170 167 157 156 150 149 147 149 143 141 135 133 132 130 129 133 131 134 143 148 156 152 146 141 141 141 141 134 129
102 114 120 120 121 119 123 121 119 134 140 146 142 137 144 155 155 155 151 147 139 136 134 131 130 129 130 127 131 137 141 149 135 154 174 170 164 152 141 138 135 136 130
102 109 117 118 114 123 134 134 139 145 144 149 150 155 154 152 148 147 147 145 141 138 136 133 131 130 135 144 156 166 152 154 137 137 149 168 153 131 128 128 127 124 128
108 111 118 123 129 136 141 141 146 146 150 159 158 168 168 170 156 158 149 151 145 142 143 135 128 126 124 138 151 153 164 150 195 136 123 99 87 94 95 100 109 107 108
117 121 127 132 130 134 136 136 142 149 154 156 151 209 156 158 159 157 159 161 160 155 150 147 138 133 122 102 115 62 57 177 315 66 59 61 58 70 60 59 64 61 69
124 126 129 128 134 136 128 136 142 151 150 152 140 142 142 147 158 185 122 142 151 149 136 136 128 113 96 98 94 69 69 87 85 77 59 55 52 46 37 35 33 31 31
125 121 131 135 145 152 148 149 155 154 159 150 158 156 176 170 163 155 140 146 147 136 119 111 97 103 87 87 61 53 59 63 62 57 49 46 41 33 21 19 18 14 9
120 124 135 144 152 155 159 164 123 148 165 155 151 128 155 158 153 151 150 144 152 148 109 108 93 66 91 72 50 55 59 62 63 59 52 45 32 28 23 20 19 13 7
119 122 137 149 164 168 170 163 150 157 165 170 144 121 131 135 136 127 133 153 128 108 99 102 94 84 81 79 80 81 74 74 68 66 65 50 46 41 34 35 31 27 24
123 130 143 151 159 158 163 163 162 179 157 148 141 123 115 112 113 194 158 135 129 132 121 93 75 69 65 84 86 89 91 84 79 71 68 59 51 48 44 41 33 27 23
121 128 136 145 148 153 159 162 172 175 169 156 138 127 119 109 110 147 143 195 104 118 108 77 69 83 103 79 86 86 112 100 83 73 68 61 54 49 43 39 33 28 24
123 129 136 135 145 152 159 166 174 181 159 102 111 110 126 71 106 84 117 113 102 98 85 65 76 87 100 97 91 92 105 100 77 71 68 64 57 49 45 41 35 31 24
123 129 133 136 140 152 161 165 175 172 163 149 112 99 101 85 101 90 100 96 76 77 69 72 86 105 92 73 71 93 95 71 80 74 69 65 60 54 50 43 40 36 29
121 122 129 134 143 148 154 163 169 168 157 190 115 82 71 82 85 82 90 76 106 70 78 76 81 69 63 74 60 62 76 60 74 71 63 61 59 58 55 51 52 43 35
124 131 131 135 139 145 152 154 161 144 105 74 86 82 74 88 110 86 77 91 107 80 60 44 46 62 68 51 49 51 55 61 47 63 59 51 55 59 54 57 55 50 40
129 135 136 134 138 144 161 171 163 93 110 82 97 80 86 104 113 90 82 81 82 55 45 38 38 41 52 50 44 54 51 50 42 51 47 46 48 56 61 58 51 48 33
139 137 138 137 140 149 159 172 161 149 138 125 121 98 103 119 95 100 78 72 53 45 39 41 40 44 43 39 55 44 51 56 43 35 41 36 37 51 58 49 41 37 32
146 144 142 143 145 147 157 163 157 141 144 161 127 108 110 100 101 100 72 73 62 47 47 42 43 36 37 46 46 49 47 44 39 33 27 24 30 41 47 35 44 47 35
153 150 147 148 151 153 153 154 145 147 157 155 133 130 116 110 121 95 67 62 51 56 51 43 43 43 41 39 44 38 39 41 38 34 30 27 27 32 47 40 51 45 32